Hourly Data Report for October 28, 2014

All times are specified in Local Standard Time (LST). Add 1 hour to adjust for Daylight Saving Time where and when it is observed.

RANKIN INLET A
NUNAVUT

62°48'38.000" N
92°06'53.000" W
32.30 m
2303405
71083
YRT

Download Data

Hourly Data (October 2014)
Hourly Data Report for October 28, 2014
Temp Definition
°C
Dew Point Temp Definition
°C
Rel Hum Definition
%
Wind Dir Definition
10's deg

Wind Spd Definition
km/h
Visibility Definition
km
Stn Press Definition
kPa
Hmdx Definition


Wind Chill Definition


Weather Definition


TIME
00:00 Legend Double Dagger -8.8 -10.9 85 33 31 24.1 101.41   -18 Cloudy
01:00 Legend Double Dagger -9.5 -11.3 87 33 31 24.1 101.44   -19 LegendNANA
02:00 Legend Double Dagger -9.3 -11.2 86 33 30 8.1 101.46   -19 Snow
03:00 Legend Double Dagger -9.6 -11.8 84 33 31 8.1 101.47   -19 Snow
04:00 Legend Double Dagger -10.3 -12.5 84 35 32 12.9 101.48   -20 Snow
05:00 Legend Double Dagger -10.8 -13.0 84 33 31 11.3 101.50   -21 Snow
06:00 Legend Double Dagger -10.6 -12.7 85 34 28 16.1 101.52   -20 Snow
07:00 Legend Double Dagger -10.6 -12.8 84 34 32 16.1 101.53   -21 Snow
08:00 Legend Double Dagger -10.8 -12.9 85 34 27 4.8 101.55   -20 Snow,Blowing Snow
09:00 Legend Double Dagger -10.9 -13.1 84 34 26 12.9 101.60   -20 Snow,Blowing Snow
10:00 Legend Double Dagger -10.6 -12.8 84 34 27 12.9 101.63   -20 Snow,Blowing Snow
11:00 Legend Double Dagger -11.3 -13.8 82 34 28 16.1 101.64   -21 Snow,Blowing Snow
12:00 Legend Double Dagger -11.1 -13.4 83 35 26 16.1 101.67   -20 Snow Showers,Blowing Snow
13:00 Legend Double Dagger -11.3 -13.8 82 34 28 12.9 101.66   -21 Snow Showers,Blowing Snow
14:00 Legend Double Dagger -11.2 -13.5 83 34 26 16.1 101.67   -20 Snow Showers,Blowing Snow
15:00 Legend Double Dagger -11.5 -13.7 84 35 21 19.3 101.69   -20 Snow Showers
16:00 Legend Double Dagger -11.1 -13.3 84 35 23 19.3 101.72   -20 Snow
17:00 Legend Double Dagger -11.0 -13.2 84 34 18 19.3 101.74   -19 Snow
18:00 Legend Double Dagger -13.2 -15.4 84 33 22 19.3 101.73   -22 Snow
19:00 Legend Double Dagger -12.3 -14.3 85 34 19 19.3 101.69   -21 Snow
20:00 Legend Double Dagger -11.4 -13.2 87 34 25 16.1 101.66   -21 Snow
21:00 Legend Double Dagger -11.1 -12.7 88 34 18 19.3 101.68   -19 Snow
22:00 Legend Double Dagger -10.8 -12.4 88 34 21 19.3 101.64   -19 Snow
23:00 Legend Double Dagger -10.8 -12.1 90 32 15 24.1 101.66   -18 Snow

Notes on Data Quality.

Legend

  • E = Estimated
  • M = Missing
  • NA = Not Available
  • ‡ = Partner data that is not subject to review by the National Climate Archives
Date modified: